{"data":{"norad_id":42988,"epoch":"2026-09-19T08:02:08.045376Z","epoch_age_seconds":115112,"freshness":"FRESH","line1":"1 42988U 17068B   26262.33481534  .00006936  00000+0  19941-3 0  9992","line2":"2 42988  97.4631  40.2791 0001353  87.4165 272.7233 15.36129779496802","mean_motion":15.36129779,"eccentricity":0.0001353,"inclination_deg":97.4631,"raan_deg":40.2791,"arg_perigee_deg":87.4165,"mean_anomaly_deg":272.7233,"bstar":0.00019941,"rev_number":49680,"period_min":93.742079587665,"perigee_km":456.64192685781,"apogee_km":458.49166830543,"semimajor_km":6835.7037975816,"source":"CELESTRAK","updated_at":"2026-09-20T09:00:34.708345Z"}}